Stockton, CA

9:57 AM PDT on October 20, 2019 (GMT -0700)
Stockton Metro

Weather History for KSCK - September, 2019

Change the Weather History Date:

Thursday, September 19, 2019

  Actual Average Record
Temperature  
Mean Temperature 69 °F -  
Max Temperature 81 °F 87 °F 102 °F (2000)
Min Temperature 56 °F 56 °F 46 °F (1965)
Degree Days  
Heating Degree Days 0 0  
Month to date heating degree days 0 0  
Since 1 July heating degree days 0 0  
Cooling Degree Days 4 7  
Month to date cooling degree days 197 159  
Year to date cooling degree days 1565 1203  
Growing Degree Days 18 (Base 50)    
Moisture  
Dew Point 50 °F    
Average Humidity 54    
Maximum Humidity 80    
Minimum Humidity 28    
Precipitation  
Precipitation 0.00 in 0.01 in 0.52 in (1977)
Month to date precipitation 0.23 0.14  
Year to date precipitation 12.72 9.18  
Snow  
Snow 0.00 in - 0.00 in (2002)
Month to date snowfall 0.0  
Since 1 July snowfall 0.0  
Since 1 September snowfall 0.0  
Snow Depth 0.00 in    
Sea Level Pressure  
Sea Level Pressure 29.91 in    
Wind  
Wind Speed 10 mph (NW)    
Max Wind Speed 17 mph    
Max Gust Speed 22 mph    
Visibility 10 miles    
Events      
T = Trace of Precipitation, MM = Missing Value Source: NWS Daily Summary

Daily Weather History Graph

Daily Weather History Graph

Search for Another Location

Airport or City:

Astronomy

Sep. 19, 2019 Rise Set
Actual Time 6:50 AM PDT 7:06 PM PDT
Civil Twilight 6:23 AM PDT 7:33 PM PDT
Nautical Twilight 5:52 AM PDT 8:03 PM PDT
Astronomical Twilight 5:21 AM PDT 8:35 PM PDT
Moon 10:24 PM PDT (9/19) 11:53 AM PDT (9/19)
Length of Visible Light 13h 09m
Length of Day
12h 16m
Waning Gibbous, 73% of the Moon is Illuminated
Sep 19
Waning Gibbous
Sep 21
Last Quarter
Sep 28
New
Oct 5
First Quarter
Oct 13
Full

Hourly Weather History & Observations

Time (PDT) Temp. Dew Point Humidity Pressure Visibility Wind Dir Wind Speed Gust Speed Precip Events Conditions
12:55 AM 62.1 °F 53.1 °F 72% 29.91 in 10.0 mi WNW 10.4 mph 17.3 mph N/A   Clear
1:55 AM 61.0 °F 52.0 °F 72% 29.91 in 10.0 mi WNW 5.8 mph - N/A   Clear
2:55 AM 60.1 °F 51.1 °F 72% 29.91 in 10.0 mi WNW 8.1 mph - N/A   Clear
3:55 AM 57.9 °F 50.0 °F 75% 29.90 in 10.0 mi WNW 8.1 mph - N/A   Clear
4:55 AM 57.9 °F 51.1 °F 78% 29.91 in 10.0 mi WNW 8.1 mph - N/A   Clear
5:55 AM 59.0 °F 54.0 °F 83% 29.91 in 10.0 mi NW 8.1 mph - N/A   Clear
6:55 AM 57.0 °F 52.0 °F 83% 29.92 in 10.0 mi NW 5.8 mph - N/A   Clear
7:55 AM 61.0 °F 53.1 °F 75% 29.94 in 10.0 mi NW 9.2 mph - N/A   Clear
8:55 AM 64.9 °F 53.1 °F 65% 29.95 in 10.0 mi WNW 10.4 mph - N/A   Clear
9:55 AM 68.0 °F 53.1 °F 59% 29.96 in 10.0 mi NNW 11.5 mph - N/A   Clear
10:55 AM 71.1 °F 52.0 °F 51% 29.96 in 10.0 mi NNW 11.5 mph - N/A   Clear
11:55 AM 73.0 °F 51.1 °F 46% 29.95 in 10.0 mi NW 10.4 mph - N/A   Clear
12:55 PM 75.9 °F 50.0 °F 40% 29.94 in 10.0 mi NNW 12.7 mph 17.3 mph N/A   Clear
1:55 PM 78.1 °F 48.9 °F 36% 29.92 in 10.0 mi NNW 11.5 mph - N/A   Clear
2:55 PM 80.1 °F 46.0 °F 30% 29.90 in 10.0 mi NNW 13.8 mph - N/A   Clear
3:55 PM 80.1 °F 44.1 °F 28% 29.89 in 10.0 mi NW 9.2 mph 21.9 mph N/A   Clear
4:55 PM 79.0 °F 46.0 °F 31% 29.88 in 10.0 mi NNW 11.5 mph - N/A   Clear
5:55 PM 77.0 °F 45.0 °F 32% 29.88 in 10.0 mi NNW 13.8 mph - N/A   Clear
6:55 PM 73.9 °F 45.0 °F 35% 29.88 in 10.0 mi North 12.7 mph - N/A   Clear
7:55 PM 68.0 °F 48.0 °F 49% 29.87 in 10.0 mi NNW 6.9 mph - N/A   Clear
8:55 PM 70.0 °F 46.9 °F 44% 29.89 in 10.0 mi WNW 9.2 mph - N/A   Clear
9:55 PM 69.1 °F 52.0 °F 54% 29.89 in 10.0 mi WNW 12.7 mph - N/A   Clear
10:55 PM 68.0 °F 50.0 °F 52% 29.89 in 10.0 mi WNW 10.4 mph - N/A   Clear
11:55 PM 66.0 °F 50.0 °F 56% 29.89 in 10.0 mi WNW 10.4 mph - N/A   Clear